Flag for U.S.A. Weather past 2 weeks in Charlottesville, Virginia, U.S.A.

Now
74 °F

Sunny.


Feels Like: 76 °F
Forecast: 62 / 90 °F
Wind: 5 mph from Northeast

Location: Charlottesville-Albemarle Airport

Current Time: Aug 3, 2015 at 10:00:01 AM

Latest Report: Aug 3, 2015 at 8:53 AM


Visibility: 10 mi

Pressure: 29.89 "Hg

Humidity: 67%

Dew point: 62 °F

Location of CharlottesvilleLocation

Historic Weather in Charlottesville — Graph

°F

Charlottesville temperature yesterday

Maximum temperature yesterday: 83 °F (at 11:53 AM)
Minimum temperature yesterday: 64 °F (at 2:53 AM)
Average temperature yesterday: 73 °F

Past Weeks' High & Low Weather Summary

 TemperatureHumidityPressure
High92 °F (Jul 19, 2:53 PM)97% (Jul 28, 1:53 AM)30.03 "Hg (Jul 28, 1:53 AM)
Low62 °F (Jul 25, 4:53 AM)34% (Jul 22, 12:53 PM)29.66 "Hg (Jul 21, 1:53 PM)
Average77 °F71%29.91 "Hg
* Reported Jul 19 7:53 AM — Aug 3 7:53 AM, Charlottesville, Weather by CustomWeather, © 2015

Note: Actual official high and low records may vary slightly from our data, if they occured in-between our weather recording intervals... More about our weather records

Advertising

Charlottesville weather history for previous 24 hours

 ConditionsComfort  
Time TempWeatherWind HumidityBarometerVisibility
7:53 AM
Mon, Aug 3
68 °FSunny.5 mph82%29.87 "Hg10 mi
6:53 AM63 °FPassing clouds.3 mph90%29.88 "Hg10 mi
5:53 AM64 °FClear.No wind87%29.87 "Hg10 mi
4:53 AM65 °FClear.5 mph85%29.87 "Hg10 mi
3:53 AM66 °FClear.No wind84%29.88 "Hg10 mi
2:53 AM66 °FClear.3 mph87%29.89 "Hg10 mi
1:53 AM67 °FClear.6 mph87%29.90 "Hg10 mi
12:53 AM68 °FClear.No wind87%29.91 "Hg10 mi
11:53 PM
Sun, Aug 2
69 °FClear.No wind84%29.92 "Hg10 mi
10:53 PM70 °FClear.3 mph81%29.92 "Hg10 mi
9:53 PM71 °FClear.3 mph78%29.93 "Hg10 mi
8:53 PM72 °FSunny.No wind76%29.92 "Hg10 mi
7:53 PM77 °FSunny.No wind64%29.92 "Hg10 mi
6:53 PM81 °FSunny.5 mph53%29.92 "Hg10 mi
5:53 PM81 °FSunny.5 mph51%29.95 "Hg10 mi
4:53 PM80 °FSunny.3 mph52%29.96 "Hg10 mi
3:53 PM81 °FSunny.7 mph49%29.96 "Hg10 mi
2:53 PM81 °FSunny.8 mph49%29.97 "Hg10 mi
1:53 PM82 °FSunny.5 mph40%29.97 "Hg10 mi
12:53 PM83 °FSunny.3 mph37%29.98 "Hg10 mi
11:53 AM83 °FSunny.5 mph40%29.98 "Hg10 mi
10:53 AM81 °FSunny.No wind53%29.98 "Hg10 mi
Weather by CustomWeather, © 2015

See weather overviewHow to use our weather pages